Hourly Data Report for December 07, 2021

OTTAWA INTL A
ONTARIO
Current Station Operator: NAVCAN

45°19'00.000" N
75°40'00.000" W
114.90 m
6106001
71628
YOW

Download Data

Hourly Data (December 2021)
Hourly Data Report for December 7, 2021
TIME
LST
Temp Definition
°C
Dew Point Definition
°C
Rel Hum Definition
%
Precip. Amount Definition
mm

Wind Dir Definition
10's deg

Wind Spd Definition
km/h
Visibility Definition
km
Stn Press Definition
kPa
Hmdx Definition


Wind Chill Definition


Weather Definition


00:00 -0.5 -3.5 80   28 30 24.1 99.04   -7 LegendNANA
01:00 -2.4 -9.3 59   29 36 24.1 99.31   -10 Clear
02:00 -4.4 -11.6 58   26 43 24.1 99.62   -14 LegendNANA
03:00 -5.4 -11.7 62   28 39 24.1 99.81   -15 LegendNANA
04:00 -6.1 -11.4 66   29 31 24.1 99.96   -15 Clear
05:00 -7.1 -11.8 69   27 22 24.1 100.08   -15 LegendNANA
06:00 -8.0 -12.8 68   26 20 24.1 100.21   -15 LegendNANA
07:00 -8.4 -13.0 70   27 19 24.1 100.33   -16 Mainly Clear
08:00 -8.8 -13.1 71   26 18 24.1 100.39   -16 LegendNANA
09:00 -7.9 -12.3 71   27 22 24.1 100.51   -16 LegendNANA
10:00 -7.3 -11.7 71   27 16 24.1 100.58   -14 Mostly Cloudy
11:00 -6.8 -11.3 71   29 17 24.1 100.61   -13 LegendNANA
12:00 -6.3 -11.8 66   25 25 24.1 100.62   -14 LegendNANA
13:00 -6.3 -16.9 43   27 26 24.1 100.64   -14 Cloudy
14:00 -6.8 -16.5 46   28 21 24.1 100.67   -14 LegendNANA
15:00 -7.1 -17.3 44   29 20 24.1 100.73   -14 LegendNANA
16:00 -7.2 -16.4 49   29 16 24.1 100.77   -14 Mostly Cloudy
17:00 -7.6 -16.9 48   30 24 24.1 100.83   -16 LegendNANA
18:00 -8.3 -16.6 52   31 23 24.1 100.87   -16 LegendNANA
19:00 -8.6 -17.6 48   29 15 24.1 100.95   -15 Mostly Cloudy
20:00 -8.6 -17.2 50   32 14 24.1 100.92   -15 LegendNANA
21:00 -8.7 -18.0 47   35 13 24.1 100.94   -15 LegendNANA
22:00 -8.9 -18.3 47   32 6 24.1 100.95   -12 Cloudy
23:00 -9.1 -17.3 52   2 13 24.1 100.96   -15 LegendNANA

Notes on Data Quality.

Legend

  • E = Estimated
  • M = Missing
  • NA = Not Available*
  • [empty] = Indicates an unobserved value
Date modified: